FW3769 Weather Reports


time (UTC)temp
C
wind
direction
speed
KPH
gust
KPH
rain 1hr
cm
rain 24hr
cm
rain mn
cm
humidity
%
barometer
mb
20260505124742 5 149 0.0 0.0 0.00 0.00 0.00 83 1015.9
20260505124239 5 159 0.0 0.0 0.00 0.00 0.00 82 1015.9
20260505123735 5 186 0.0 0.0 0.00 0.00 0.00 82 1015.9
20260505123232 5 102 0.0 0.0 0.00 0.00 0.00 82 1015.9
20260505122728 5 152 0.0 0.0 0.00 0.00 0.00 81 1015.0
20260505122225 5 180 0.0 0.0 0.00 0.00 0.00 81 1015.0
20260505121722 5 159 0.0 0.0 0.00 0.00 0.00 80 1015.0
20260505121219 5 179 0.0 0.0 0.00 0.00 0.00 80 1015.4
20260505120715 5 264 0.0 0.0 0.00 0.00 0.00 79 1015.4
20260505120211 5 158 0.0 0.0 0.00 0.00 0.00 78 1015.4
20260505115705 5 139 0.0 0.0 0.00 0.00 0.00 79 1015.4
20260505115203 5 133 0.0 0.0 0.00 0.00 0.00 80 1015.4
20260505114700 5 192 0.0 0.0 0.00 0.00 0.00 81 1015.4
20260505114155 5 204 0.0 0.0 0.00 0.00 0.00 80 1015.0
20260505113652 5 204 0.0 0.0 0.00 0.00 0.00 80 1015.0
20260505113149 5 174 0.0 0.0 0.00 0.00 0.00 79 1015.0
20260505112645 5 152 0.0 0.0 0.00 0.00 0.00 79 1015.0
20260505112143 5 158 0.0 0.0 0.00 0.00 0.00 79 1015.0
20260505111642 5 178 0.0 0.0 0.00 0.00 0.00 80 1015.0
20260505111139 5 223 0.0 0.0 0.00 0.00 0.00 82 1015.0
20260505110635 5 143 0.0 0.0 0.00 0.00 0.00 83 1015.0
20260505110133 5 162 0.0 0.0 0.00 0.00 0.00 84 1015.0
20260505102108 5 159 0.0 0.0 0.00 0.00 0.00 89 1014.6
20260505101607 5 146 0.0 0.0 0.00 0.00 0.00 89 1014.6
20260505101103 5 159 0.0 0.0 0.00 0.00 0.00 90 1015.0
20260505100559 5 96 0.0 0.0 0.00 0.00 0.00 90 1015.0
20260505100056 5 165 0.0 0.0 0.00 0.00 0.00 91 1015.0
20260505095552 5 133 0.0 0.0 0.00 0.00 0.00 91 1015.0
20260505095049 5 90 0.0 0.0 0.00 0.00 0.00 90 1015.0
20260505094545 5 29 0.0 0.0 0.00 0.00 0.00 89 1015.0
20260505094042 5 1 0.0 0.0 0.00 0.00 0.00 89 1014.6
20260505093538 5 246 0.0 0.0 0.00 0.00 0.00 89 1014.6
20260505093035 5 204 0.0 0.0 0.00 0.00 0.00 89 1015.0
20260505092533 5 119 0.0 0.0 0.00 0.00 0.00 89 1015.0
20260505092032 5 156 0.0 0.0 0.00 0.00 0.00 89 1015.0
20260505091528 5 108 0.0 0.0 0.00 0.00 0.00 89 1014.6
20260505091027 5 225 0.0 0.0 0.00 0.00 0.00 90 1014.6
20260505090524 6 162 0.0 0.0 0.00 0.00 0.00 91 1014.6
20260505090022 6 168 0.0 0.0 0.00 0.00 0.00 91 1015.0
20260505085519 6 169 0.0 0.0 0.00 0.00 0.00 92 1015.0
20260505085017 6 71 0.0 0.0 0.00 0.00 0.00 92 1015.0
20260505084515 6 90 0.0 0.0 0.00 0.00 0.00 92 1015.4
20260505084013 6 273 0.0 0.0 0.00 0.00 0.00 92 1015.4
20260505083510 6 84 0.0 0.0 0.00 0.00 0.00 92 1015.4
20260505083006 6 29 0.0 0.0 0.00 0.00 0.00 92 1015.4
20260505082502 6 355 0.0 0.0 0.00 0.00 0.00 92 1015.4
20260505081959 6 28 0.0 0.0 0.00 0.00 0.00 92 1015.4
20260505081455 6 29 0.0 0.0 0.00 0.00 0.00 92 1015.4
20260505080952 6 336 0.0 0.0 0.00 0.00 0.00 92 1015.4
20260505080448 6 331 0.0 0.0 0.00 0.00 0.00 92 1015.4
20260505075944 6 334 0.0 0.0 0.00 0.00 0.00 92 1015.9
20260505075441 6 279 0.0 0.0 0.00 0.00 0.00 92 1015.9
20260505074938 6 324 0.0 0.0 0.00 0.00 0.00 92 1015.9
20260505074436 6 6 0.0 0.0 0.00 0.00 0.00 92 1015.9
20260505073933 6 348 0.0 0.0 0.00 0.00 0.00 92 1015.9
20260505073430 6 12 0.0 0.0 0.00 0.00 0.00 92 1015.9
20260505072927 6 12 0.0 0.0 0.00 0.00 0.00 92 1016.2
20260505072423 6 6 0.0 0.0 0.00 0.00 0.00 92 1016.2
20260505071920 6 48 0.0 0.0 0.00 0.00 0.00 91 1016.2
20260505071415 6 0 0.0 0.0 0.00 0.00 0.00 91 1015.9
20260505070914 6 2 0.0 0.0 0.00 0.00 0.00 91 1015.9
20260505070410 6 48 0.0 0.0 0.00 0.00 0.00 91 1015.9
20260505065906 6 46 0.0 0.0 0.00 0.00 0.00 90 1015.9
20260505065403 6 2 0.0 0.0 0.00 0.00 0.00 90 1015.9
20260505064859 6 26 0.0 0.0 0.00 0.00 0.00 90 1015.9
20260505064357 6 3 0.0 0.0 0.00 0.00 0.00 90 1016.2
20260505063855 6 35 0.0 0.0 0.00 0.00 0.00 89 1016.2
20260505063355 6 0 0.0 0.0 0.00 0.00 0.00 89 1016.2
20260505062852 6 331 0.0 0.0 0.00 0.00 0.00 90 1015.9
20260505062350 6 6 0.0 0.0 0.00 0.00 0.00 90 1015.9
20260505061846 6 1 0.0 0.0 0.00 0.00 0.00 90 1015.9
20260505061344 6 2 0.0 0.0 0.00 0.00 0.00 89 1016.2
20260505060842 6 18 0.0 0.0 0.00 0.00 0.00 88 1016.2
20260505060338 6 22 0.0 0.0 0.00 0.00 0.00 88 1016.2
20260505055834 6 11 0.0 0.0 0.03 0.03 0.03 87 1016.2
20260505055330 6 348 0.0 0.0 0.03 0.03 0.03 86 1016.2
20260505054828 6 352 0.0 0.0 0.03 0.03 0.03 86 1016.2
20260505054325 6 0 0.0 0.0 0.03 0.03 0.03 84 1016.2
20260505053823 7 42 0.0 0.0 0.03 0.03 0.03 83 1016.2
20260505053320 7 10 0.0 0.0 0.03 0.03 0.03 82 1016.2
20260505052817 7 353 0.0 0.0 0.00 0.00 0.00 82 1016.7
20260505052314 7 7 0.0 0.0 0.00 0.00 0.00 81 1016.7
20260505051811 7 356 0.0 0.0 0.00 0.00 0.00 81 1016.7
20260505051308 7 6 0.0 0.0 0.00 0.00 0.00 81 1016.2
20260505050806 7 7 0.0 0.0 0.00 0.00 0.00 80 1016.2
20260505050305 7 25 0.0 0.0 0.00 0.00 0.00 81 1016.2
20260505041734 7 341 0.0 0.0 0.00 0.00 0.00 79 1015.4
20260505041231 7 334 0.0 0.0 0.00 0.00 0.00 80 1015.4
20260505040729 7 1 0.0 0.0 0.00 0.00 0.00 79 1015.4
20260505040226 7 9 0.0 0.0 0.00 0.00 0.00 79 1015.4
20260505035723 7 356 0.0 0.0 0.00 0.00 0.00 79 1015.0
20260505035219 7 348 0.0 0.0 0.00 0.00 0.00 81 1015.0
20260505034716 7 13 0.0 0.0 0.00 0.00 0.00 82 1015.0
20260505034213 7 24 0.0 0.0 0.00 0.00 0.00 80 1015.4
20260505033709 7 76 0.0 0.0 0.00 0.00 0.00 79 1015.4
20260505033207 7 298 0.0 0.0 0.00 0.00 0.00 78 1015.4
20260505032705 7 311 0.0 0.0 0.00 0.00 0.00 80 1015.4
20260505032200 7 6 0.0 0.0 0.00 0.00 0.00 81 1015.4
20260505031658 7 24 0.0 0.0 0.00 0.00 0.00 80 1015.4
20260505031154 7 330 0.0 0.0 0.00 0.00 0.00 80 1015.4
20260505030651 7 336 0.0 0.0 0.00 0.00 0.00 81 1015.4
20260505030147 7 3 0.0 0.0 0.00 0.00 0.00 81 1015.4
20260505025643 7 324 0.0 0.0 0.00 0.00 0.00 81 1015.0
20260505025142 7 354 0.0 0.0 0.00 0.00 0.00 82 1015.0
20260505024639 7 34 0.0 0.0 0.00 0.00 0.00 81 1015.0
20260505024136 7 344 0.0 0.0 0.00 0.00 0.00 81 1015.0
20260505023634 7 2 0.0 0.0 0.00 0.00 0.00 81 1015.0
20260505023131 7 343 0.0 0.0 0.00 0.00 0.00 80 1015.0
20260505022628 7 25 0.0 0.0 0.00 0.00 0.00 80 1015.0
20260505022125 7 341 0.0 0.0 0.00 0.00 0.00 79 1015.0
20260505021621 7 348 0.0 0.0 0.00 0.00 0.00 80 1015.0
20260505021118 7 0 0.0 0.0 0.00 0.00 0.00 77 1015.4
20260505020614 7 6 0.0 0.0 0.00 0.00 0.00 76 1015.4
20260505020110 7 98 0.0 0.0 0.00 0.00 0.00 77 1015.4
20260505015608 7 6 0.0 0.0 0.00 0.00 0.00 77 1015.0
20260505015104 7 18 0.0 0.0 0.00 0.00 0.00 77 1015.0
20260505014601 7 36 0.0 0.0 0.00 0.00 0.00 76 1015.0
20260505014058 8 343 0.0 0.0 0.00 0.00 0.00 71 1015.0
20260505013555 10 6 0.0 0.0 0.00 0.00 0.00 62 1015.0
20260505013053 10 12 0.0 0.0 0.00 0.00 0.00 61 1015.0
20260505012550 11 326 0.0 0.0 0.00 0.00 0.00 55 1015.0
20260505012047 11 320 0.0 0.0 0.00 0.00 0.00 54 1015.0
20260505011543 11 23 0.0 0.0 0.00 0.00 0.00 54 1014.1
20260505011040 11 0 0.0 0.0 0.00 0.00 0.00 48 1014.1
20260505010535 11 0 0.0 0.0 0.00 0.00 0.00 48 1014.1
20260505010032 11 354 0.0 0.0 0.00 0.00 0.00 48 1013.8
20260505005529 12 333 0.0 0.0 0.00 0.00 0.00 47 1013.8
20260505005026 12 348 0.0 0.0 0.00 0.00 0.00 46 1013.8
20260505004523 12 59 0.0 0.0 0.00 0.00 0.00 45 1013.3
20260505004020 12 348 0.0 0.0 0.00 0.00 0.00 43 1013.3
20260505003517 12 78 0.0 0.0 0.00 0.00 0.00 43 1013.3
20260505003014 12 12 0.0 0.0 0.00 0.00 0.00 42 1012.9
20260505002509 13 348 0.0 0.0 0.00 0.00 0.00 41 1012.9
20260505002008 13 348 0.0 0.0 0.00 0.00 0.00 40 1012.9
20260505001505 13 330 0.0 0.0 0.00 0.00 0.00 39 1012.1
20260505001002 13 58 0.0 0.0 0.00 0.00 0.00 39 1012.1
20260505000500 14 36 0.0 0.0 0.00 0.00 0.00 38 1012.1
20260504235957 15 354 0.0 0.0 0.00 0.00 0.00 37 1012.5
20260504235454 15 312 0.0 0.0 0.00 0.00 0.00 36 1012.5
20260504234950 15 24 0.0 0.0 0.00 0.00 0.00 35 1012.5
20260504234448 15 24 0.0 0.0 0.00 0.00 0.00 35 1012.5
20260504233944 15 60 0.0 0.0 0.00 0.00 0.00 35 1012.5
20260504233440 15 18 0.0 0.0 0.00 0.00 0.00 35 1012.5
20260504232937 15 336 0.0 0.0 0.00 0.00 0.00 36 1012.9
20260504232434 16 344 0.0 0.0 0.00 0.00 0.00 35 1012.9
20260504231931 16 348 0.0 0.0 0.00 0.00 0.00 34 1012.9
20260504231427 16 18 0.0 0.0 0.00 0.00 0.00 34 1012.5
20260504230924 15 328 0.0 0.0 0.00 0.00 0.00 35 1012.5
20260504230421 15 348 0.0 0.0 0.00 0.00 0.00 35 1012.5
20260504225920 15 12 0.0 0.0 0.00 0.00 0.00 35 1012.9
20260504225416 15 316 0.0 0.0 0.00 0.00 0.00 34 1012.9
20260504224914 15 348 0.0 0.0 0.00 0.00 0.00 34 1012.9
20260504224410 15 40 0.0 0.0 0.00 0.00 0.00 35 1012.5
20260504223907 16 324 0.0 0.0 0.00 0.00 0.00 33 1012.5
20260504223402 16 108 0.0 0.0 0.00 0.00 0.00 34 1012.5
20260504222859 16 168 0.0 0.0 0.00 0.00 0.00 34 1012.5
20260504222356 16 259 0.0 0.0 0.00 0.00 0.00 30 1012.5
20260504221854 16 79 0.0 0.0 0.00 0.00 0.00 31 1012.5
20260504221350 16 276 0.0 0.0 0.00 0.00 0.00 32 1012.5
20260504220848 17 216 0.0 0.0 0.00 0.00 0.00 31 1012.5
20260504220344 17 174 0.0 0.0 0.00 0.00 0.00 29 1012.5
20260504215842 16 126 0.0 0.0 0.00 0.00 0.00 28 1012.5
20260504215338 16 156 0.0 0.0 0.00 0.00 0.00 29 1012.5
20260504214834 17 150 0.0 0.0 0.00 0.00 0.00 28 1012.5
20260504214331 16 116 0.0 0.0 0.00 0.00 0.00 28 1012.5
20260504213828 16 282 0.0 0.0 0.00 0.00 0.00 29 1012.5
20260504213323 16 348 0.0 0.0 0.00 0.00 0.00 31 1012.5
20260504212821 16 334 0.0 0.0 0.00 0.00 0.00 32 1012.1
20260504212317 17 282 0.0 0.0 0.00 0.00 0.00 27 1012.1
20260504211815 17 312 0.0 0.0 0.00 0.00 0.00 26 1012.1
20260504211311 17 46 0.0 0.0 0.00 0.00 0.00 27 1012.1
20260504210809 17 0 0.0 0.0 0.00 0.00 0.00 26 1012.1
20260504210306 17 354 0.0 0.0 0.00 0.00 0.00 26 1012.1
20260504205803 18 336 0.0 0.0 0.00 0.00 0.00 25 1012.1
20260504205300 18 12 0.0 0.0 0.00 0.00 0.00 24 1012.1
20260504204758 19 348 0.0 0.0 0.00 0.00 0.00 24 1012.1
20260504204256 19 214 0.0 0.0 0.00 0.00 0.00 22 1012.5
20260504203755 19 330 0.0 0.0 0.00 0.00 0.00 23 1012.5
20260504203252 19 245 0.0 0.0 0.00 0.00 0.00 24 1012.5
20260504202747 18 258 0.0 0.0 0.00 0.00 0.00 22 1012.9
20260504202244 18 193 0.0 0.0 0.00 0.00 0.00 22 1012.9
20260504201741 18 220 0.0 0.0 0.00 0.00 0.00 23 1012.9
20260504201238 18 282 0.0 0.0 0.00 0.00 0.00 24 1012.5
20260504200737 18 222 0.0 0.0 0.00 0.00 0.00 24 1012.5
20260504200232 18 324 0.0 0.0 0.00 0.00 0.00 24 1012.5
20260504195729 18 72 0.0 0.0 0.00 0.00 0.00 24 1012.9
20260504195225 18 18 0.0 0.0 0.00 0.00 0.00 23 1012.9
20260504194722 18 78 0.0 0.0 0.00 0.00 0.00 24 1012.9
20260504194218 17 168 0.0 0.0 0.00 0.00 0.00 22 1012.9
20260504193714 18 246 0.0 0.0 0.00 0.00 0.00 23 1012.9
20260504193212 18 341 0.0 0.0 0.00 0.00 0.00 22 1012.9
20260504192710 18 108 0.0 0.0 0.00 0.00 0.00 20 1012.9
20260504192208 18 330 0.0 0.0 0.00 0.00 0.00 21 1012.9
20260504191706 19 186 0.0 0.0 0.00 0.00 0.00 20 1012.9
20260504191203 19 172 0.0 0.0 0.00 0.00 0.00 19 1012.9
20260504190658 19 226 0.0 0.0 0.00 0.00 0.00 19 1012.9
20260504190155 19 216 0.0 0.0 0.00 0.00 0.00 18 1012.9
20260504185651 20 257 0.0 0.0 0.00 0.00 0.00 19 1013.3
20260504185147 20 149 0.0 0.0 0.00 0.00 0.00 18 1013.3
20260504184643 19 192 0.0 0.0 0.00 0.00 0.00 20 1013.3
20260504184133 18 144 0.0 0.0 0.00 0.00 0.00 19 1013.3
20260504183630 20 194 0.0 0.0 0.00 0.00 0.00 18 1013.3
20260504183128 20 234 0.0 0.0 0.00 0.00 0.00 19 1013.3
20260504182625 20 132 0.0 0.0 0.00 0.00 0.00 19 1013.8
20260504182123 20 300 0.0 0.0 0.00 0.00 0.00 18 1013.8
20260504181620 20 132 0.0 0.0 0.00 0.00 0.00 17 1013.8
20260504181117 20 181 0.0 0.0 0.00 0.00 0.00 20 1013.8
20260504180617 20 181 0.0 0.0 0.00 0.00 0.00 19 1013.8
20260504180115 19 210 0.0 0.0 0.00 0.00 0.00 19 1013.8
20260504175612 18 166 0.0 0.0 0.00 0.00 0.00 20 1014.1
20260504175108 19 266 0.0 0.0 0.00 0.00 0.00 21 1014.1
20260504174607 20 270 0.0 0.0 0.00 0.00 0.00 21 1014.1
20260504174103 19 188 0.0 0.0 0.00 0.00 0.00 22 1014.1
20260504173600 18 257 0.0 0.0 0.00 0.00 0.00 23 1014.1
20260504173058 18 182 0.0 0.0 0.00 0.00 0.00 24 1014.6
20260504172553 19 216 0.0 0.0 0.00 0.00 0.00 22 1014.6
20260504172050 18 343 0.0 0.0 0.00 0.00 0.00 24 1014.6
20260504171547 18 108 0.0 0.0 0.00 0.00 0.00 26 1015.0
20260504171044 18 90 0.0 0.0 0.00 0.00 0.00 24 1015.0
20260504170539 18 227 0.0 0.0 0.00 0.00 0.00 28 1015.0
20260504150924 13 305 0.0 0.0 0.00 0.00 0.00 35 1015.9
20260504150420 14 22 0.0 0.0 0.00 0.00 0.00 35 1015.9
20260504140847 12 348 0.0 0.0 0.00 0.00 0.00 35 1015.4
20260504140343 12 348 0.0 0.0 0.00 0.00 0.00 37 1015.4
20260504130812 8 6 0.0 0.0 0.00 0.00 0.00 50 1015.4
20260504130308 8 28 0.0 0.0 0.00 0.00 0.00 48 1015.4